Location: Ammerl�gen
(47.2167°N, 9.6000°E)
Time: 20:28:18
(UTC+00:00)

DMSP 5D-2 F13 DEB - Pass Details

Date: 29 October 2021
Orbit: 758 x 780 km, 98.7° (Epoch: 03 December)

Event Time Altitude Azimuth Distance (km) Brightness Sun altitude
Exits shadow 19:49:50 21° 323° (NW) 1,648 ? -37.5°
Drops below altitude 10° 19:51:40 10° 334° (NNW) 2,299 ? -37.7°
Sets 19:54:05 0° 340° (NNW) 3,229 ? -38.1°
